Weather History for Boise, ID

Change the Weather History Date:

Monday, February 10, 2014

  Actual Average Record
Temperature  
Mean Temperature 38 °F 35 °F  
Max Temperature 50 °F 43 °F 64 °F (1951)
Min Temperature 26 °F 27 °F -7 °F (1933)
Degree Days  
Heating Degree Days 27 30  
Month to date heating degree days 343 307  
Since 1 July heating degree days 3964 3668  
Cooling Degree Days 0 0  
Month to date cooling degree days 0 0  
Year to date cooling degree days 0 0  
Moisture  
Dew Point 31 °F    
Average Humidity 77    
Maximum Humidity 100    
Minimum Humidity 53    
Precipitation  
Precipitation 0.00 in 0.03 in 0.34 in (1930)
Month to date precipitation 0.69 0.35  
Year to date precipitation 1.50 1.59  
Snow  
Snow 0.00 in 0.10 in 1.50 in (1903)
Month to date snowfall 4.2 1.2  
Since 1 July snowfall 14.4 16.0  
Snow Depth 0.00 in    
Sea Level Pressure  
Sea Level Pressure 30.18 in    
Wind  
Wind Speed 2 mph (SSE)    
Max Wind Speed 8 mph    
Max Gust Speed 10 mph    
Visibility 5 miles    
Events Fog    
T = Trace of Precipitation, MM = Missing Value Source: NWS Daily Summary

Daily Weather History Graph

Daily Weather History Graph

Search for Another Location

Airport:

Trip Planner

Search our weather history database for the weather conditions in past years. The results will help you decide how hot, cold, wet, or windy it might be!

Date:

Astronomy

Feb. 10, 2014 Rise Set
Actual Time 7:50 AM MST 6:08 PM MST
Civil Twilight 7:20 AM MST 6:38 PM MST
Nautical Twilight 6:46 AM MST 7:12 PM MST
Astronomical Twilight 6:13 AM MST 7:45 PM MST
Moon 2:38 PM MST (2/10) 4:49 AM MST (2/10)
Length of Visible Light 11h 18m
Length of Day
10h 18m
Waxing Gibbous, 85% of the Moon is Illuminated
Feb 10
Waxing Gibbous
Feb 14
Full
Feb 22
Last Quarter
Mar 1
New
Mar 8
First Quarter

Hourly Weather History & Observations

Time (MST) Temp. Windchill Dew Point Humidity Pressure Visibility Wind Dir Wind Speed Gust Speed Precip Events Conditions
12:53 AM 33.1 °F - 32.0 °F 96% 30.06 in 2.5 mi Calm Calm - N/A   Clear
1:10 AM 30.2 °F 26.7 °F 30.2 °F 100% 30.04 in 1.5 mi SW 3.5 mph - N/A   Clear
1:42 AM 30.2 °F - 30.2 °F 100% 30.04 in 1.5 mi Calm Calm - N/A   Scattered Clouds
1:50 AM 30.2 °F - 30.2 °F 100% 30.05 in 1.5 mi Calm Calm - N/A   Mostly Cloudy
1:53 AM 30.9 °F - 30.9 °F 100% 30.09 in 1.5 mi Calm Calm - N/A   Mostly Cloudy
2:00 AM 30.2 °F - 30.2 °F 100% 30.05 in 0.8 mi Calm Calm - N/A   Overcast
2:10 AM 30.2 °F 26.7 °F 30.2 °F 100% 30.05 in 0.2 mi West 3.5 mph - N/A Fog Light Freezing Fog
2:18 AM 30.2 °F 26.7 °F 30.2 °F 100% 30.06 in 0.2 mi West 3.5 mph - N/A Fog Light Freezing Fog
2:53 AM 30.0 °F - 28.9 °F 96% 30.11 in 0.2 mi Calm Calm - N/A Fog Light Freezing Fog
3:53 AM 30.0 °F - 30.0 °F 100% 30.11 in 0.2 mi Calm Calm - N/A Fog Light Freezing Fog
4:53 AM 28.9 °F - 28.9 °F 100% 30.14 in 0.2 mi Calm Calm - N/A Fog Light Freezing Fog
5:53 AM 28.0 °F 22.8 °F 28.0 °F 100% 30.17 in 0.2 mi SE 4.6 mph - N/A Fog Light Freezing Fog
6:53 AM 26.1 °F - 26.1 °F 100% 30.17 in 0.2 mi Calm Calm - N/A Fog Light Freezing Fog
7:53 AM 28.0 °F - 27.0 °F 96% 30.21 in 0.2 mi Calm Calm - N/A Fog Light Freezing Fog
8:53 AM 28.9 °F 25.2 °F 27.0 °F 92% 30.24 in 0.2 mi East 3.5 mph - N/A Fog Light Freezing Fog
9:13 AM 30.2 °F 26.7 °F 28.4 °F 93% 30.18 in 0.8 mi ESE 3.5 mph - N/A   Mist
9:23 AM 30.2 °F 25.4 °F 28.4 °F 93% 30.18 in 0.8 mi ESE 4.6 mph - N/A   Mist
9:34 AM 30.2 °F 25.4 °F 28.4 °F 93% 30.18 in 0.2 mi ESE 4.6 mph - N/A Fog Light Freezing Fog
9:53 AM 30.0 °F 26.5 °F 28.9 °F 96% 30.24 in 0.5 mi ESE 3.5 mph - N/A Fog Light Freezing Fog
10:03 AM 30.2 °F - 28.4 °F 93% 30.19 in 3.0 mi Calm Calm - N/A   Overcast
10:05 AM 30.2 °F - 28.4 °F 93% 30.19 in 5.0 mi Calm Calm - N/A   Clear
10:08 AM 30.2 °F - 30.2 °F 100% 30.19 in 10.0 mi Calm Calm - N/A   Clear
10:10 AM 30.2 °F - 30.2 °F 100% 30.19 in 10.0 mi Calm Calm - N/A   Clear
10:53 AM 35.1 °F - 33.1 °F 92% 30.25 in 10.0 mi Calm Calm - N/A   Clear
11:53 AM 41.0 °F 39.0 °F 33.1 °F 73% 30.26 in 10.0 mi NW 3.5 mph - N/A   Clear
12:22 PM 42.8 °F 41.1 °F 33.8 °F 70% 30.21 in 1.5 mi WNW 3.5 mph - N/A   Haze
12:24 PM 42.8 °F - 33.8 °F 70% 30.21 in 10.0 mi Calm Calm - N/A   Clear
12:53 PM 46.0 °F 43.9 °F 35.1 °F 66% 30.25 in 10.0 mi NW 4.6 mph - N/A   Clear
1:53 PM 46.0 °F - 35.1 °F 66% 30.24 in 10.0 mi Calm Calm - N/A   Clear
2:53 PM 46.9 °F - 35.1 °F 63% 30.23 in 10.0 mi NW 5.8 mph - N/A   Clear
3:53 PM 46.9 °F - 33.1 °F 59% 30.23 in 10.0 mi Calm Calm - N/A   Clear
4:53 PM 48.0 °F - 33.1 °F 56% 30.22 in 10.0 mi NNE 4.6 mph - N/A   Partly Cloudy
5:53 PM 46.0 °F - 30.9 °F 56% 30.24 in 10.0 mi Calm Calm - N/A   Clear
6:53 PM 39.9 °F 37.8 °F 35.1 °F 83% 30.25 in 10.0 mi West 3.5 mph - N/A   Overcast
7:53 PM 37.9 °F - 35.1 °F 89% 30.24 in 8.0 mi Calm Calm - N/A   Scattered Clouds
8:53 PM 37.9 °F 35.5 °F 33.1 °F 83% 30.22 in 10.0 mi SSE 3.5 mph - N/A   Partly Cloudy
9:53 PM 37.0 °F 33.3 °F 30.9 °F 79% 30.22 in 10.0 mi South 4.6 mph - N/A   Clear
10:53 PM 39.0 °F 35.7 °F 33.1 °F 79% 30.21 in 10.0 mi ESE 4.6 mph - N/A   Overcast
11:53 PM 37.9 °F 34.4 °F 32.0 °F 79% 30.20 in 10.0 mi SE 4.6 mph - N/A   Mostly Cloudy